Weather History for Joliet, IL

Change the Weather History Date:

Sunday, March 17, 2013

  Actual Average (KLOT) Record (KLOT)
Temperature  
Mean Temperature 34 °F 39 °F  
Max Temperature 40 °F 48 °F 81 °F (2012)
Min Temperature 27 °F 30 °F 15 °F (1993)
Degree Days  
Heating Degree Days 32 26  
Month to date heating degree days 494  
Since 1 July heating degree days 5222  
Cooling Degree Days 0 0  
Month to date cooling degree days 0  
Year to date cooling degree days 0  
Moisture  
Dew Point 22 °F    
Average Humidity 65    
Maximum Humidity 74    
Minimum Humidity 50    
Precipitation  
Precipitation 0.00 in 0.10 in 1.07 in (1998)
Month to date precipitation 1.48  
Year to date precipitation 5.19  
Snow  
Snow 0.00 in 0.10 in 1.50 in (2001)
Month to date snowfall 3.3  
Since 1 July snowfall 30.7  
Snow Depth -    
Sea Level Pressure  
Sea Level Pressure 30.11 in    
Wind  
Wind Speed 8 mph (ENE)    
Max Wind Speed 17 mph    
Max Gust Speed 22 mph    
Visibility 10 miles    
Events      
T = Trace of Precipitation, MM = Missing Value Source: NWS Daily Summary

Daily Weather History Graph

Daily Weather History Graph

Search for Another Location

Airport:

Trip Planner

Search our weather history database for the weather conditions in past years. The results will help you decide how hot, cold, wet, or windy it might be!

Date:

Astronomy

Mar. 17, 2013 Rise Set
Actual Time 7:00 AM CDT 7:01 PM CDT
Civil Twilight 6:33 AM CDT 7:29 PM CDT
Nautical Twilight 6:00 AM CDT 8:01 PM CDT
Astronomical Twilight 5:28 AM CDT 8:34 PM CDT
Moon 10:09 AM CDT (3/17) 12:13 AM CDT (3/17)
Length of Visible Light 12h 56m
Length of Day
12h 01m
Waxing Crescent, 31% of the Moon is Illuminated
Mar 17
Waxing Crescent
Mar 19
First Quarter
Mar 27
Full
Apr 2
Last Quarter
Apr 10
New

Hourly Weather History & Observations

Time (CDT) Temp. Windchill Dew Point Humidity Pressure Visibility Wind Dir Wind Speed Gust Speed Precip Events Conditions
12:15 AM 31.6 °F 27.0 °F 22.8 °F 70% 30.11 in 10.0 mi NW 4.6 mph - N/A   Overcast
12:35 AM 31.5 °F 26.8 °F 23.2 °F 71% 30.12 in 10.0 mi NNW 4.6 mph - N/A   Overcast
12:55 AM 31.1 °F 24.5 °F 23.7 °F 74% 30.11 in 10.0 mi NNW 6.9 mph - N/A   Overcast
1:15 AM 30.9 °F 25.2 °F 23.5 °F 74% 30.11 in 10.0 mi NNW 5.8 mph - N/A   Overcast
1:35 AM 30.7 °F 23.3 °F 22.8 °F 72% 30.11 in 10.0 mi NNW 8.1 mph - N/A   Overcast
1:55 AM 30.4 °F 24.5 °F 22.5 °F 72% 30.12 in 10.0 mi NNW 5.8 mph - N/A   Overcast
2:15 AM 30.2 °F 22.6 °F 21.9 °F 71% 30.12 in 10.0 mi North 8.1 mph - N/A   Overcast
2:35 AM 30.2 °F 23.4 °F 22.1 °F 72% 30.12 in 10.0 mi North 6.9 mph - N/A   Overcast
2:55 AM 30.2 °F 21.9 °F 21.4 °F 70% 30.12 in 10.0 mi North 9.2 mph - N/A   Overcast
3:35 AM 30.0 °F 21.1 °F 21.2 °F 70% 30.11 in 10.0 mi NNE 10.4 mph - N/A   Overcast
3:55 AM 29.7 °F 22.8 °F 20.3 °F 68% 30.11 in 10.0 mi NNE 6.9 mph - N/A   Mostly Cloudy
4:15 AM 29.3 °F 20.2 °F 19.2 °F 66% 30.11 in 10.0 mi North 10.4 mph - N/A   Clear
4:35 AM 29.1 °F 20.6 °F 19.4 °F 67% 30.11 in 10.0 mi NNE 9.2 mph - N/A   Mostly Cloudy
4:55 AM 28.4 °F 20.4 °F 19.4 °F 69% 30.12 in 10.0 mi NNE 8.1 mph - N/A   Scattered Clouds
5:35 AM 28.9 °F 19.8 °F 19.0 °F 67% 30.13 in 10.0 mi NNE 10.4 mph - N/A   Overcast
5:55 AM 28.4 °F 21.2 °F 18.3 °F 66% 30.16 in 10.0 mi NNE 6.9 mph - N/A   Overcast
6:15 AM 27.5 °F 22.2 °F 17.1 °F 65% 30.16 in 10.0 mi NE 4.6 mph - N/A   Scattered Clouds
6:35 AM 27.5 °F 19.3 °F 17.6 °F 66% 30.17 in 10.0 mi NNE 8.1 mph - N/A   Clear
6:55 AM 27.3 °F 17.7 °F 17.6 °F 67% 30.18 in 10.0 mi NE 10.4 mph - N/A   Clear
7:15 AM 27.3 °F 19.9 °F 17.8 °F 67% 30.18 in 10.0 mi NE 6.9 mph - N/A   Scattered Clouds
7:35 AM 27.5 °F 20.2 °F 17.6 °F 66% 30.19 in 10.0 mi NE 6.9 mph - N/A   Scattered Clouds
7:55 AM 27.7 °F 22.4 °F 17.8 °F 66% 30.19 in 10.0 mi NE 4.6 mph - N/A   Clear
8:15 AM 28.9 °F 21.9 °F 18.0 °F 64% 30.18 in 10.0 mi NE 6.9 mph - N/A   Clear
8:35 AM 28.9 °F 21.9 °F 18.3 °F 65% 30.18 in 10.0 mi NE 6.9 mph - N/A   Clear
9:15 AM 30.4 °F 23.6 °F 19.0 °F 63% 30.18 in 10.0 mi ENE 6.9 mph - N/A   Mostly Cloudy
9:35 AM 31.1 °F 25.4 °F 19.6 °F 62% 30.18 in 10.0 mi NE 5.8 mph - N/A   Mostly Cloudy
9:55 AM 32.0 °F 26.4 °F 20.3 °F 62% 30.18 in 10.0 mi East 5.8 mph - N/A   Overcast
10:15 AM 32.7 °F 23.0 °F 20.1 °F 60% 30.19 in 10.0 mi East 13.8 mph - N/A   Overcast
10:35 AM 33.4 °F 25.4 °F 21.0 °F 60% 30.18 in 10.0 mi East 10.4 mph - N/A   Overcast
11:15 AM 34.9 °F 26.2 °F 20.7 °F 56% 30.18 in 10.0 mi East 12.7 mph - N/A   Overcast
11:35 AM 35.2 °F 27.1 °F 21.7 °F 58% 30.18 in 10.0 mi ESE 11.5 mph - N/A   Overcast
11:55 AM 34.5 °F 25.7 °F 22.5 °F 61% 30.17 in 10.0 mi East 12.7 mph 17.3 mph N/A   Overcast
12:15 PM 34.5 °F 26.7 °F 22.3 °F 61% 30.17 in 10.0 mi East 10.4 mph - N/A   Overcast
12:35 PM 35.4 °F 27.3 °F 22.8 °F 60% 30.16 in 10.0 mi East 11.5 mph 17.3 mph N/A   Overcast
12:55 PM 35.8 °F 26.9 °F 22.5 °F 58% 30.16 in 10.0 mi ESE 13.8 mph 17.3 mph N/A   Overcast
1:15 PM 36.0 °F 29.0 °F 22.1 °F 57% 30.16 in 10.0 mi ESE 9.2 mph - N/A   Overcast
1:35 PM 37.4 °F 30.8 °F 22.5 °F 55% 30.14 in 10.0 mi East 9.2 mph - N/A   Overcast
1:55 PM 37.8 °F 31.3 °F 22.6 °F 54% 30.13 in 10.0 mi ESE 9.2 mph - N/A   Mostly Cloudy
2:15 PM 39.7 °F 32.3 °F 22.6 °F 50% 30.11 in 10.0 mi East 12.7 mph 20.7 mph N/A   Mostly Cloudy
2:55 PM 37.9 °F 30.5 °F 21.9 °F 53% 30.10 in 10.0 mi East 11.5 mph 19.6 mph N/A   Mostly Cloudy
3:15 PM 40.1 °F 33.2 °F 23.0 °F 51% 30.09 in 10.0 mi East 11.5 mph 16.1 mph N/A   Mostly Cloudy
3:35 PM 37.8 °F 30.7 °F 24.1 °F 58% 30.08 in 10.0 mi ESE 10.4 mph - N/A   Overcast
3:55 PM 38.3 °F 30.9 °F 23.7 °F 56% 30.07 in 10.0 mi ESE 11.5 mph - N/A   Overcast
4:15 PM 37.9 °F 30.5 °F 22.5 °F 54% 30.07 in 10.0 mi East 11.5 mph - N/A   Overcast
4:35 PM 37.4 °F 29.8 °F 22.8 °F 56% 30.07 in 10.0 mi ENE 11.5 mph - N/A   Mostly Cloudy
4:55 PM 36.7 °F 29.4 °F 22.8 °F 57% 30.07 in 10.0 mi ENE 10.4 mph - N/A   Overcast
5:15 PM 36.5 °F 27.4 °F 23.2 °F 59% 30.07 in 10.0 mi East 15.0 mph - N/A   Overcast
5:35 PM 35.2 °F 26.6 °F 23.9 °F 63% 30.08 in 10.0 mi ESE 12.7 mph 18.4 mph N/A   Overcast
5:55 PM 34.2 °F 24.8 °F 23.5 °F 65% 30.08 in 10.0 mi ESE 13.8 mph - N/A   Mostly Cloudy
6:15 PM 33.4 °F 24.8 °F 23.4 °F 67% 30.07 in 10.0 mi ESE 11.5 mph - N/A   Clear
6:35 PM 33.1 °F 24.4 °F 23.0 °F 66% 30.07 in 10.0 mi East 11.5 mph - N/A   Clear
6:55 PM 32.4 °F 26.9 °F 23.2 °F 69% 30.06 in 10.0 mi ESE 5.8 mph - N/A   Clear
7:15 PM 32.2 °F 25.8 °F 22.8 °F 68% 30.06 in 10.0 mi East 6.9 mph - N/A   Clear
7:35 PM 32.0 °F 25.6 °F 22.8 °F 69% 30.06 in 10.0 mi East 6.9 mph - N/A   Clear
7:55 PM 32.2 °F 23.8 °F 23.7 °F 71% 30.06 in 10.0 mi East 10.4 mph - N/A   Clear
8:35 PM 31.8 °F 24.6 °F 23.9 °F 73% 30.05 in 10.0 mi ENE 8.1 mph - N/A   Clear
8:55 PM 31.6 °F 25.1 °F 24.3 °F 74% 30.04 in 10.0 mi ENE 6.9 mph - N/A   Clear
9:15 PM 31.6 °F 25.1 °F 24.3 °F 74% 30.02 in 10.0 mi ENE 6.9 mph - N/A   Clear
9:35 PM 32.0 °F 25.6 °F 23.9 °F 72% 30.02 in 10.0 mi East 6.9 mph - N/A   Clear
9:55 PM 32.2 °F 23.8 °F 23.7 °F 71% 30.01 in 10.0 mi East 10.4 mph 18.4 mph N/A   Clear
10:15 PM 32.0 °F 22.1 °F 24.1 °F 73% 30.02 in 10.0 mi ESE 13.8 mph 20.7 mph N/A   Clear
10:35 PM 32.0 °F 20.8 °F 23.4 °F 70% 30.01 in 10.0 mi ESE 17.3 mph 20.7 mph N/A   Clear
10:55 PM 31.6 °F 22.1 °F 23.0 °F 70% 29.99 in 10.0 mi East 12.7 mph 19.6 mph N/A   Clear
11:15 PM 31.3 °F 21.1 °F 23.4 °F 72% 29.99 in 10.0 mi East 13.8 mph 21.9 mph N/A   Clear
11:35 PM 31.1 °F 21.4 °F 23.5 °F 74% 29.98 in 10.0 mi East 12.7 mph - N/A   Clear
11:55 PM 30.9 °F 21.2 °F 23.4 °F 74% 29.96 in 10.0 mi East 12.7 mph 18.4 mph N/A   Clear